This is the latest recevied weather packets stored in our database for station/object W3TMB. If no packets are shown the sender has not sent any weather packets the latest 10 day(s).
| Time | Temp. | Humidity | Pressure | Rain* | Wind** | Luminosity | Snow |
|---|---|---|---|---|---|---|---|
| 1777861503 | 6.67° C | 75% | 1010.4 hPa | 0 mm | - | 0 W/m² | - |
| 1777861200 | 6.67° C | 75% | 1010.5 hPa | 0 mm | - | 0 W/m² | - |
| 1777860897 | 6.67° C | 75% | 1010.5 hPa | 0 mm | - | 0 W/m² | - |
| 1777860594 | 6.67° C | 75% | 1010.5 hPa | 0 mm | - | 0 W/m² | - |
| 1777860291 | 7.22° C | 74% | 1010.5 hPa | 0 mm | - | 0 W/m² | - |
| 1777859988 | 7.22° C | 74% | 1010.4 hPa | 0 mm | - | 0 W/m² | - |
| 1777859684 | 7.22° C | 74% | 1010.1 hPa | 0 mm | - | 0 W/m² | - |
| 1777859380 | 7.78° C | 73% | 1010.3 hPa | 0 mm | - | 0 W/m² | - |
| 1777859076 | 7.78° C | 72% | 1010.1 hPa | 0 mm | - | 0 W/m² | - |
| 1777858773 | 7.78° C | 72% | 1010 hPa | 0 mm | - | 0 W/m² | - |
| 1777858472 | 7.78° C | 70% | 1010.3 hPa | 0 mm | - | 0 W/m² | - |
| 1777858167 | 8.33° C | 70% | 1010.2 hPa | 0 mm | - | 0 W/m² | - |
| 1777857865 | 8.33° C | 69% | 1010.2 hPa | 0 mm | - | 0 W/m² | - |
| 1777857562 | 8.89° C | 69% | 1010.2 hPa | 0 mm | - | 0 W/m² | - |
| 1777857259 | 8.89° C | 67% | 1009.9 hPa | 0 mm | - | 0 W/m² | - |
| 1777856955 | 8.89° C | 66% | 1010.1 hPa | 0 mm | - | 0 W/m² | - |
| 1777856651 | 9.44° C | 64% | 1009.9 hPa | 0 mm | - | 0 W/m² | - |
| 1777856347 | 10° C | 62% | 1009.9 hPa | 0 mm | - | 0 W/m² | - |
| 1777856044 | 10° C | 59% | 1010 hPa | 0 mm | - | 0 W/m² | - |
| 1777855742 | 10.56° C | 58% | 1009.6 hPa | 0 mm | - | 0 W/m² | - |
| 1777855439 | 10.56° C | 56% | 1009.7 hPa | 0 mm | - | 0 W/m² | - |
| 1777855135 | 11.67° C | 55% | 1009.5 hPa | 0 mm | - | 0 W/m² | - |
| 1777854833 | 12.22° C | 49% | 1009.7 hPa | 0 mm | - | 0 W/m² | - |
| 1777854529 | 12.22° C | 47% | 1009.7 hPa | 0 mm | - | 0 W/m² | - |
| 1777854226 | 12.78° C | 46% | 1009.6 hPa | 0 mm | - | 0 W/m² | - |
* Rain latest hour (hover to see other rain measurements)
** Current wind speed in m/s (hover to see current wind gust speed)